Weather in Cherniavshchyna

Ukraine / Dnipropetrovsk Region     48°56′21″N   35°51′25″E
temp.,
°C
wind,
m/s
gust,
m/s
humid.,
%
clouds,
%
prec.,
mm/h
press.,
hPa
HPBL,
m
11 may, tue
tue1100:00+9n91785100 0.9 1015864
03:00+9n71582100 0.9 1014649
06:00+10n81785100 0.1 1014596
09:00+12nne81482100 0.1 1013930
12:00+10e71082100 0.1 1015751
15:00+13ne8115229 0.1 10151828
18:00+12ne8126555 0.1 10161679
21:00+8ne7127682 0.1 10161014
12 may, wed
wed1200:00+8ne71182100 0.1 1015956
03:00+7ne61191100 0.3 1015735
06:00+7e71286100 0.4 10161107
09:00+8e81186100 0.6 1016985
12:00+8e71088100 1.7 10151195
15:00+10e4783100 6.0 10141048
18:00+11s3473100 2.1 1013627
21:00+7sse33875 2.3 101324
13 may, thu
thu1300:00+6sse3593100 0.0 101491
03:00+6sse359299 0.0 1014108
06:00+6se349297 0.0 101580
09:00+12se3369100 0.0 1015513
12:00+17sse345411 0.0 10141296
15:00+19s355490 0.0 10131700
18:00+20e1359100 0.0 10131026
21:00+16ene4670100 0.0 1013110
14 may, fri
fri1400:00+13ese468558 0.0 101287
03:00+13ese4992100 0.0 1011171
06:00+14se499589 0.2 1011227
09:00+19sse56799 0.8 1011522
12:00+22sse4664100 0.0 1011945
15:00+25s5651100 0.0 10101349
18:00+24ssw3561100 0.0 1010216
21:00+18sw226576 0.1 101016
15 may, sat
sat1500:00+15wsw22750 0.2 101011
03:00+14sw33820 0.2 101135
06:00+13sw2386100 0.0 101158
09:00+19sw346399 0.0 1012486
12:00+22sw575162 0.0 10131647
15:00+23sw574754 0.0 10132264
18:00+23wsw24534 0.0 10131138
21:00+19nnw1158100 0.0 101311